Flag for Germany Weather past 2 weeks in Cologne, North Rhine-Westphalia, Germany

Now
75 °F

Thundershowers. Broken clouds.


Feels Like: 77 °F
Forecast: 61 / 74 °F
Wind: 3 mph from North

Location: Koeln / Bonn

Current Time: Jul 29, 2014 at 3:29:52 PM

Latest Report: Jul 29, 2014 at 2:50 PM


Visibility: N/A

Pressure: 29.80 "Hg

Humidity: 74%

Dew point: 66 °F

Location of CologneLocation

Historic Weather in Cologne — Graph

°F

Cologne temperature yesterday

Maximum temperature yesterday: 82 °F (at 1:50 PM)
Minimum temperature yesterday: 61 °F (at 2:20 AM)
Average temperature yesterday: 69 °F

Past Weeks' High & Low Weather Summary

 TemperatureHumidityPressure
High91 °F (Jul 19, 2:50 PM)100% (Jul 21, 7:20 AM)30.18 "Hg (Jul 21, 7:20 AM)
Low54 °F (Jul 25, 4:20 AM)26% (Jul 19, 2:50 PM)29.77 "Hg (Jul 20, 2:20 AM)
Average70 °F73%29.97 "Hg
* Reported Jul 14 2:20 PM — Jul 29 2:20 PM, Cologne, Weather by CustomWeather, © 2014

Note: Actual official high and low records may vary slightly from our data, if they occured in-between our weather recording intervals... More about our weather records

Advertising

Cologne weather history for previous 24 hours

 ConditionsComfort  
Time TempWeatherWind HumidityBarometerVisibility
2:20 PM
Jul 29
75 °FThunderstorms. Broken clouds.3 mph78%29.80 "HgN/A
1:50 PM73 °FBroken clouds.5 mph83%29.80 "Hg5 mi
1:20 PM73 °FBroken clouds.6 mph83%29.83 "Hg5 mi
12:50 PM72 °FBroken clouds.7 mph88%29.83 "Hg5 mi
12:20 PM72 °FBroken clouds.6 mph83%29.83 "Hg4 mi
11:50 AM70 °FBroken clouds.6 mph88%29.83 "Hg4 mi
11:20 AM70 °FFog.6 mph88%29.83 "Hg3 mi
10:50 AM68 °FFog.7 mph94%29.83 "Hg3 mi
10:20 AM68 °FFog.5 mph88%29.83 "Hg3 mi
9:50 AM68 °FFog.7 mph88%29.83 "Hg3 mi
9:20 AM66 °FFog.6 mph94%29.83 "Hg2 mi
8:50 AM66 °FFog.7 mph94%29.83 "Hg2 mi
8:20 AM66 °FFog.5 mph94%29.83 "Hg2 mi
7:50 AM64 °FFog.6 mph100%29.83 "Hg2 mi
7:20 AM64 °FFog.6 mph100%29.83 "Hg2 mi
6:50 AM64 °FDrizzle. Fog.5 mph94%29.83 "Hg1 mi
6:20 AM64 °FFog.5 mph94%29.83 "Hg1 mi
5:50 AM64 °FFog.7 mph100%29.83 "Hg1 mi
5:20 AM64 °FFog.7 mph94%29.83 "Hg2 mi
4:50 AM64 °FLight rain. Fog.6 mph100%29.83 "Hg2 mi
4:20 AM64 °FRain. Fog.7 mph100%29.83 "Hg2 mi
3:50 AM64 °FRain. Fog.3 mph100%29.83 "Hg2 mi
3:20 AM64 °FLight rain. Fog.3 mph100%29.83 "Hg2 mi
2:50 AM64 °FFog.3 mph100%29.83 "Hg3 mi
2:20 AM64 °FFog.2 mph100%29.83 "Hg4 mi
1:50 AM64 °FFog.1 mph94%29.83 "Hg4 mi
1:20 AM64 °FFog.1 mph94%29.83 "HgN/A
12:50 AM64 °FFog.2 mph100%29.83 "HgN/A
12:20 AM66 °FFog.2 mph94%29.86 "HgN/A
10:50 PM
Jul 28
66 °FPassing clouds.3 mph94%29.86 "HgN/A
10:20 PM68 °FSunny.3 mph88%29.86 "Hg10 mi
9:50 PM68 °FSunny.7 mph94%29.86 "Hg10 mi
9:20 PM68 °FSunny.6 mph88%29.83 "Hg10 mi
8:50 PM68 °FPartly sunny.3 mph88%29.86 "HgN/A
8:20 PM68 °FSunny.6 mph88%29.86 "Hg10 mi
7:50 PM68 °FSunny.7 mph88%29.86 "Hg10 mi
7:20 PM68 °FPartly sunny.6 mph88%29.83 "HgN/A
6:50 PM68 °FBroken clouds.3 mph88%29.86 "HgN/A
6:20 PM66 °FPartly sunny.5 mph94%29.83 "HgN/A
5:50 PM66 °FBroken clouds.7 mph88%29.83 "HgN/A
5:20 PM66 °FThundershowers. Broken clouds.5 mph88%29.83 "HgN/A
4:50 PM64 °FThunderstorms. Partly sunny.5 mph94%29.86 "HgN/A
4:20 PM68 °FMild.3 mph88%29.86 "Hg1 mi
3:50 PM73 °FThundershowers. Broken clouds.14 mph74%29.83 "HgN/A
3:20 PM77 °FBroken clouds.18 mph65%29.80 "HgN/A
Weather by CustomWeather, © 2014

See weather overviewHow to use our weather pages